1498093201.11,44026,20.31,74112.5,4.31,-28.85,-29.29,0,*78
1498093202.36,44027,20.31,74102.8,4.35,-28.69,-29.01,0,*75
1498093203.6,44028,20.31,74100.8,4.35,-28.69,-29.17,0,*7D
1498093204.84,44029,20.31,74100.5,4.35,-28.79,-29.23,0,*7A
1498093206.1,44030,20.31,74098.3,4.35,-29.01,-29.57,0,*7F
1498093207.35,44031,20.31,74092.8,4.35,-29.17,-29.67,0,*7A
1498093208.6,44032,20.31,74090.8,4.35,-29.17,-29.67,0,*79
1498093209.88,44033,20.31,74096.5,4.31,-29.29,-29.89,0,*71
1498093211.17,44034,20.31,74114.8,4.31,-29.39,-29.89,0,*77
1498093212.42,44035,20.31,74112.3,4.33,-29.29,-29.73,0,*70
1498093213.67,44036,20.31,74104.5,4.33,-29.29,-29.73,0,*73
1498093214.9,44037,20.31,74102.0,4.33,-29.23,-29.73,0,*78
1498093216.12,44038,20.31,74096.8,4.33,-29.29,-29.79,0,*77
1498093217.32,44039,20.31,74098.8,4.33,-29.23,-29.61,0,*75
1498093218.52,44040,20.31,74106.8,4.33,-29.23,-29.61,0,*7B
1498093219.75,44041,20.31,74112.3,4.31,-29.07,-29.57,0,*7B
1498093221.0,44042,20.31,74114.0,4.31,-29.29,-29.79,0,*78
1498093222.23,44043,20.31,74110.0,4.33,-29.13,-29.57,0,*7E
1498093223.48,44044,20.31,74108.3,4.31,-29.13,-29.45,0,*78
1498093224.71,44045,20.31,74110.3,4.31,-29.23,-29.61,0,*7C
1498093225.97,44046,20.31,74116.5,4.31,-29.13,-29.57,0,*79
1498093227.19,44047,20.31,74120.5,4.31,-28.69,-28.97,0,*79
1498093228.44,44048,20.31,74118.8,4.31,-28.37,-28.75,0,*71
1498093229.7,44049,20.31,74108.3,4.31,-28.43,-28.85,0,*7C
1498093230.95,44050,20.31,74104.5,4.31,-28.43,-28.85,0,*74
1498093232.15,44051,20.31,74108.3,4.33,-28.69,-29.23,0,*72
1498093233.4,44052,20.31,74106.5,4.33,-28.91,-29.29,0,*7C
1498093234.67,44053,20.31,74110.0,4.35,-29.17,-29.51,0,*7B
1498093235.9,44054,20.31,74112.0,4.31,-29.23,-29.61,0,*7C
1498093237.13,44055,20.31,74112.3,4.31,-28.97,-29.57,0,*76
1498093238.38,44056,20.31,74110.0,4.31,-28.85,-29.39,0,*7E
1498093239.61,44057,20.31,74104.3,4.33,-28.85,-29.29,0,*7C
1498093240.83,44058,20.31,74102.8,4.31,-28.85,-29.23,0,*7B
1498093242.05,44059,20.31,74102.8,4.33,-28.69,-29.13,0,*79
1498093243.3,44060,20.31,74104.8,4.31,-28.69,-29.13,0,*71
1498093244.57,44061,20.31,74102.3,4.31,-28.75,-29.29,0,*74
1498093245.82,44062,20.31,74096.8,4.33,-28.91,-29.39,0,*7E
1498093247.03,44063,20.31,74104.3,4.33,-28.97,-29.57,0,*71
1498093248.23,44064,20.31,74104.0,4.33,-29.07,-29.45,0,*7D
1498093249.46,44065,20.31,74102.8,4.31,-29.07,-29.57,0,*7D
1498093250.72,44066,20.31,74102.0,4.31,-29.13,-29.57,0,*7B
1498093251.97,44067,20.31,74100.5,4.31,-29.29,-29.61,0,*76
1498093253.24,44068,20.31,74110.5,4.31,-29.13,-29.73,0,*73
1498093254.5,44069,20.31,74108.3,4.31,-29.13,-29.57,0,*74
1498093255.75,44070,20.31,74108.5,4.29,-29.13,-29.51,0,*73
1498093256.98,44071,20.31,74110.8,4.29,-29.17,-29.61,0,*75
1498093258.21,44072,20.31,74108.5,4.29,-29.01,-29.45,0,*77
1498093259.45,44073,20.31,74110.0,4.27,-28.79,-29.17,0,*71
1498093260.71,44074,20.31,74110.0,4.29,-28.63,-29.01,0,*74
1498093261.95,44075,20.31,74108.0,4.27,-28.63,-29.01,0,*7B
1498093263.19,44076,20.31,74110.0,4.29,-28.75,-29.13,0,*72
1498093264.45,44077,20.31,74108.3,4.29,-28.79,-29.35,0,*7B
1498093265.69,44078,20.31,74112.5,4.29,-28.75,-29.29,0,*75
1498093266.95,44079,20.31,74110.0,4.29,-28.79,-29.35,0,*75
1498093268.15,44080,20.31,74102.3,4.29,-28.97,-29.45,0,*74
1498093269.36,44081,20.31,74106.5,4.29,-28.97,-29.45,0,*75
1498093270.6,44082,20.31,74114.3,4.29,-28.75,-29.13,0,*79
1498093271.85,44083,20.31,74110.0,4.29,-28.75,-29.01,0,*7B
1498093273.1,44084,20.31,74104.5,4.29,-28.75,-29.17,0,*7B
1498093274.35,44085,20.31,74110.5,4.29,-28.75,-29.35,0,*7A
1498093275.6,44086,20.31,74110.0,4.29,-28.75,-29.13,0,*7D
1498093276.84,44087,20.31,74100.0,4.29,-28.75,-29.29,0,*75
1498093278.07,44088,20.31,74100.5,4.33,-28.09,-28.53,0,*76
1498093279.33,44089,20.31,74102.5,4.31,-28.25,-28.53,0,*7B
1498093280.55,44090,20.31,74104.5,4.33,-28.09,-28.53,0,*7F
1498093281.75,44091,20.31,74094.5,4.33,-28.53,-28.97,0,*79
1498093283.03,44092,20.31,74094.0,4.31,-28.75,-29.13,0,*71
1498093284.25,44093,20.31,74090.5,4.31,-28.69,-29.23,0,*7E
1498093285.47,44094,20.31,74098.5,4.33,-28.69,-29.13,0,*78
1498093286.69,44095,20.31,74104.8,4.33,-28.59,-29.07,0,*7F
1498093287.92,44096,20.31,74102.3,4.33,-28.25,-28.69,0,*7E
1498093289.12,44097,20.31,74096.3,4.33,-27.77,-28.37,0,*7C
1498093290.35,44098,20.31,74096.8,4.33,-28.09,-28.69,0,*7E
1498093291.57,44099,20.31,74100.0,4.33,-27.93,-28.43,0,*7B
1498093292.85,44100,20.31,74104.5,4.35,-28.05,-28.47,0,*78
1498093294.12,44101,20.31,74112.3,4.39,-28.05,-28.47,0,*75
1498093295.37,44102,20.31,74114.8,4.39,-28.21,-28.69,0,*7C
1498093296.62,44103,20.31,74116.3,4.39,-28.37,-28.79,0,*7B
1498093297.86,44104,20.31,74112.3,4.35,-28.31,-28.79,0,*76
1498093299.08,44105,20.31,74100.5,4.39,-28.85,-29.23,0,*7A
1498093300.32,44106,20.31,74110.0,4.39,-28.63,-29.07,0,*77
1498093301.59,44107,20.31,74106.3,4.39,-28.21,-28.79,0,*78
1498093302.84,44108,20.31,74112.3,4.35,-28.05,-28.37,0,*77
1498093304.12,44109,20.31,74110.0,4.39,-28.21,-28.63,0,*7D
1498093305.35,44110,20.31,74104.5,4.39,-28.37,-28.85,0,*7A
1498093306.62,44111,20.31,74106.3,4.39,-28.47,-28.91,0,*79
1498093307.84,44112,20.31,74108.5,4.39,-27.89,-28.37,0,*7B
1498093309.09,44113,20.31,74116.8,4.39,-27.71,-28.21,0,*7A
1498093310.32,44114,20.31,74122.0,4.41,-27.77,-28.21,0,*74
1498093311.6,44115,20.31,74098.3,4.43,-28.05,-28.59,0,*72
1498093312.82,44116,20.31,74090.0,4.41,-28.15,-28.63,0,*7B
1498093314.09,44117,20.31,74076.0,4.43,-28.43,-28.79,0,*70
1498093315.35,44118,20.31,74076.8,4.43,-28.59,-29.13,0,*79
1498093316.56,44119,20.31,74088.0,4.41,-28.85,-29.45,0,*78
1498093317.8,44120,20.31,74092.8,4.45,-28.79,-29.29,0,*7F
1498093319.03,44121,20.31,74106.5,4.41,-28.85,-29.35,0,*74
1498093320.24,44122,20.31,74098.3,4.41,-28.47,-28.97,0,*70
1498093321.46,44123,20.31,74092.5,4.41,-28.15,-28.75,0,*7A
1498093322.71,44124,20.31,74088.3,4.41,-28.25,-28.79,0,*72
1498093323.96,44125,20.31,74098.8,4.45,-28.25,-28.79,0,*77
1498093325.23,44126,20.31,74094.5,4.43,-28.43,-28.91,0,*74
1498093326.48,44127,20.31,74102.0,4.43,-28.25,-28.69,0,*72
1498093327.7,44128,20.31,74094.3,4.45,-28.59,-28.97,0,*71
1498093328.94,44129,20.31,74094.0,4.43,-28.59,-28.97,0,*76
1498093330.18,44130,20.31,74090.8,4.43,-28.79,-29.23,0,*72
1498093331.4,44131,20.31,74092.0,4.43,-28.97,-29.61,0,*75
1498093332.65,44132,20.31,74100.5,4.43,-29.13,-29.57,0,*7E
1498093333.92,44133,20.31,74102.3,4.43,-28.79,-29.29,0,*7B
1498093335.16,44134,20.31,74110.0,4.41,-28.79,-29.29,0,*7E
1498093336.41,44135,20.31,74104.5,4.41,-28.59,-29.01,0,*77
1498093337.68,44136,20.31,74096.3,4.43,-28.43,-28.91,0,*75
1498093338.93,44137,20.31,74104.3,4.41,-28.79,-29.35,0,*70
1498093340.16,44138,20.31,74104.5,4.41,-28.97,-29.35,0,*7F
1498093341.38,44139,20.31,74104.8,4.43,-29.07,-29.61,0,*75
1498093342.6,44140,20.31,74106.5,4.41,-29.17,-29.79,0,*71
1498093343.83,44141,20.31,74108.3,4.41,-29.29,-29.83,0,*78
1498093345.02,44142,20.31,74112.5,4.41,-28.97,-29.61,0,*73
1498093346.28,44143,20.31,74104.5,4.39,-28.85,-29.35,0,*7F
1498093347.53,44144,20.31,74104.8,4.39,-28.85,-29.39,0,*74
1498093348.81,44145,20.31,74106.0,4.39,-28.91,-29.51,0,*7E
1498093350.09,44146,20.31,74102.0,4.39,-28.91,-29.51,0,*7D
1498093351.37,44147,20.31,74100.3,4.39,-29.01,-29.51,0,*74
1498093352.64,44148,20.31,74098.3,4.39,-29.17,-29.73,0,*7C
1498093353.86,44149,20.31,74104.3,4.39,-29.23,-29.83,0,*75
1498093355.09,44150,20.31,74108.3,4.35,-29.07,-29.67,0,*7D
1498093356.34,44151,20.31,74110.0,4.35,-29.07,-29.51,0,*79
1498093357.59,44152,20.31,74114.5,4.35,-28.69,-29.17,0,*71
1498093358.8,44153,20.31,74116.5,4.35,-28.69,-29.23,0,*77
1498093360.05,44154,20.31,74118.5,4.35,-28.69,-29.17,0,*77
1498093361.32,44155,20.31,74114.0,4.35,-28.63,-29.01,0,*7B
1498093362.56,44156,20.31,74108.5,4.39,-28.47,-28.85,0,*7F
1498093363.78,44157,20.31,74112.5,4.39,-28.69,-29.23,0,*7F
1498093365.0,44158,20.31,74112.3,4.35,-28.69,-29.23,0,*7C
1498093366.24,44159,20.31,74110.0,4.39,-28.63,-29.23,0,*7B
1498093367.46,44160,20.31,74106.0,4.39,-28.69,-29.23,0,*7B
1498093368.73,44161,20.31,74106.3,4.35,-28.63,-29.17,0,*7B
1498093369.98,44162,20.31,74100.8,4.35,-28.69,-29.35,0,*72
1498093371.25,44163,20.31,74096.3,4.39,-28.79,-29.35,0,*7E
1498093372.53,44164,20.31,74098.8,4.39,-28.91,-29.39,0,*73
1498093373.8,44165,20.31,74094.8,4.39,-28.91,-29.39,0,*72
1498093375.07,44166,20.31,74088.8,4.35,-29.01,-29.39,0,*75
1498093376.29,44167,20.31,74090.3,4.35,-28.69,-29.23,0,*70
1498093377.54,44168,20.31,74096.8,4.35,-28.63,-29.07,0,*73
1498093378.78,44169,20.31,74096.0,4.35,-28.37,-28.79,0,*7B
1498093380.03,44170,20.31,74092.3,4.39,-28.53,-29.17,0,*74
1498093381.3,44171,20.31,74096.3,4.39,-28.79,-29.35,0,*7D
1498093382.56,44172,20.31,74092.0,4.35,-28.85,-29.35,0,*71
1498093383.83,44173,20.31,74090.8,4.35,-28.79,-29.35,0,*73
1498093385.09,44174,20.31,74094.8,4.39,-28.85,-29.35,0,*7B
1498093386.33,44175,20.31,74092.5,4.39,-28.69,-29.17,0,*78
1498093387.55,44176,20.31,74092.8,4.39,-28.53,-29.07,0,*73
1498093388.82,44177,20.31,74088.5,4.39,-28.63,-29.17,0,*70
1498093390.05,44178,20.31,74102.5,4.39,-29.07,-29.57,0,*78
1498093391.3,44179,20.31,74096.3,4.35,-29.17,-29.57,0,*74
1498093392.52,44180,20.31,74092.5,4.35,-29.07,-29.67,0,*70
1498093393.75,44181,20.31,74082.3,4.39,-29.23,-29.83,0,*71
1498093394.98,44182,20.31,74080.8,4.35,-29.07,-29.67,0,*72
1498093396.22,44183,20.31,74080.0,4.35,-29.23,-29.73,0,*70
1498093397.45,44184,20.31,74102.0,4.35,-29.23,-29.83,0,*78
1498093398.7,44185,20.31,74098.8,4.35,-29.23,-29.73,0,*76
1498093399.92,44186,20.31,74094.5,4.35,-29.07,-29.67,0,*76
1498093401.2,44187,20.31,74098.8,4.35,-28.91,-29.39,0,*72
1498093402.4,44188,20.31,74114.3,4.33,-29.07,-29.45,0,*7E
1498093403.61,44189,20.31,74116.8,4.33,-28.85,-29.45,0,*74
1498093404.89,44190,20.31,74108.0,4.31,-28.43,-28.91,0,*7C
1498093406.09,44191,20.31,74112.0,4.33,-28.53,-28.97,0,*78
1498093407.29,44192,20.31,74104.0,4.33,-28.53,-28.97,0,*7B
1498093408.54,44193,20.31,74102.0,4.33,-28.21,-28.75,0,*73
1498093409.75,44194,20.31,74092.3,4.33,-28.37,-28.85,0,*7C
1498093410.94,44195,20.31,74084.5,4.33,-28.69,-29.23,0,*7B
1498093412.16,44196,20.31,74064.8,4.35,-28.69,-29.23,0,*7E
1498093413.41,44197,20.31,74064.0,4.35,-28.85,-29.39,0,*76
1498093414.64,44198,20.31,74082.0,4.33,-28.91,-29.57,0,*72
1498093415.89,44199,20.31,74084.8,4.35,-28.85,-29.39,0,*78
1498093417.09,44200,20.31,74088.8,4.33,-28.97,-29.57,0,*76
1498093418.37,44201,20.31,74098.8,4.35,-29.01,-29.51,0,*79
1498093419.65,44202,20.31,74102.0,4.31,-29.13,-29.73,0,*7D
1498093420.88,44203,20.31,74106.3,4.31,-28.97,-29.61,0,*72
1498093422.08,44204,20.31,74098.8,4.33,-29.07,-29.61,0,*7F
1498093423.31,44205,20.31,74096.8,4.31,-28.97,-29.57,0,*71
1498093424.54,44206,20.31,74104.3,4.31,-29.07,-29.61,0,*7F
1498093425.79,44207,20.31,74104.8,4.31,-29.13,-29.57,0,*7E
1498093426.99,44208,20.31,74106.3,4.33,-28.97,-29.57,0,*7E
1498093428.22,44209,20.31,74104.8,4.33,-28.85,-29.39,0,*74
1498093429.47,44210,20.31,74104.5,4.31,-28.69,-29.29,0,*7D
1498093430.74,44211,20.31,74112.5,4.31,-28.75,-29.29,0,*71
1498093431.98,44212,20.31,74114.5,4.31,-28.69,-29.29,0,*7F
1498093433.23,44213,20.31,74120.3,4.29,-28.75,-29.29,0,*7A
1498093434.48,44214,20.31,74118.8,4.33,-28.43,-28.91,0,*71
1498093435.75,44215,20.31,74110.3,4.31,-28.43,-29.13,0,*79
1498093437.0,44216,20.31,74096.0,4.31,-28.37,-28.91,0,*72
1498093438.26,44217,20.31,74096.3,4.29,-28.75,-29.35,0,*73
1498093439.47,44218,20.31,74094.8,4.33,-28.85,-29.45,0,*7F
1498093440.69,44219,20.31,74094.8,4.31,-28.97,-29.61,0,*79
1498093441.92,44220,20.31,74084.0,4.31,-29.07,-29.79,0,*72
1498093443.14,44221,20.31,74082.0,4.31,-29.23,-29.79,0,*75
1498093444.43,44222,20.31,74084.0,4.31,-29.29,-29.89,0,*73
1498093445.65,44223,20.31,74076.5,4.29,-29.13,-29.67,0,*72
1498093446.89,44224,20.31,74106.0,4.29,-29.17,-29.83,0,*7B
1498093448.11,44225,20.31,74106.0,4.29,-29.13,-29.79,0,*7B
1498093449.36,44226,20.31,74096.8,4.29,-28.59,-29.17,0,*7F
1498093450.62,44227,20.31,74088.3,4.29,-28.09,-28.63,0,*79
1498093451.87,44228,20.31,74086.5,4.31,-28.21,-28.69,0,*7F
1498093453.09,44229,20.31,74084.8,4.29,-28.31,-28.79,0,*77
1498093454.36,44230,20.31,74076.8,4.31,-28.75,-29.29,0,*72
1498093455.59,44231,20.31,74070.8,4.31,-28.97,-29.57,0,*76
1498093456.82,44232,20.31,74076.8,4.31,-28.97,-29.57,0,*75
1498093458.03,44233,20.31,74080.3,4.33,-29.07,-29.61,0,*7B
1498093459.3,44234,20.31,74094.0,4.31,-29.13,-29.73,0,*78
1498093460.53,44235,20.31,74088.0,4.31,-28.97,-29.57,0,*72
1498093461.76,44236,20.31,74098.5,4.31,-29.07,-29.45,0,*7A
1498093462.99,44237,20.31,74092.5,4.31,-29.07,-29.45,0,*7B
1498093464.22,44238,20.31,74100.0,4.31,-29.07,-29.61,0,*72
1498093465.45,44239,20.31,74100.0,4.31,-28.97,-29.57,0,*7E
1498093466.68,44240,20.31,74100.3,4.29,-29.01,-29.67,0,*74
1498093467.93,44241,20.31,74098.3,4.27,-29.17,-29.73,0,*79
1498093469.15,44242,20.31,74106.5,4.29,-29.13,-29.79,0,*7A
1498093470.38,44243,20.31,74110.0,4.29,-29.17,-29.67,0,*70
1498093471.6,44244,20.31,74108.0,4.27,-29.07,-29.51,0,*7D
1498093472.85,44245,20.31,74110.8,4.29,-28.63,-29.13,0,*77
1498093474.1,44246,20.31,74110.5,4.29,-28.43,-28.91,0,*7D
1498093475.32,44247,20.31,74104.8,4.29,-28.43,-28.97,0,*7A
1498093476.51,44248,20.31,74104.3,4.27,-28.37,-28.97,0,*78
1498093477.71,44249,20.31,74102.0,4.27,-28.31,-28.85,0,*7C
1498093478.94,44250,20.31,74094.5,4.29,-28.15,-28.63,0,*74
1498093480.17,44251,20.31,74100.3,4.29,-27.93,-28.47,0,*72
1498093481.41,44252,20.31,74108.3,4.29,-27.83,-28.43,0,*74
1498093482.67,44253,20.31,74100.8,4.31,-28.05,-28.53,0,*7C
1498093483.9,44254,20.31,74098.3,4.31,-27.89,-28.37,0,*72
1498093485.12,44255,20.31,74098.3,4.33,-27.89,-28.43,0,*72
1498093486.37,44256,20.31,74096.0,4.31,-27.89,-28.43,0,*73
1498093487.6,44257,20.31,74096.3,4.33,-27.93,-28.43,0,*7B
1498093488.82,44258,20.31,74098.0,4.33,-27.89,-28.43,0,*7F
1498093490.05,44259,20.31,74100.8,4.33,-28.09,-28.69,0,*71
1498093491.28,44260,20.31,74104.8,4.33,-27.93,-28.59,0,*74
1498093492.51,44261,20.31,74102.3,4.33,-27.77,-28.43,0,*74
1498093493.76,44262,20.31,74096.8,4.39,-27.51,-28.05,0,*7B
1498093495.0,44263,20.31,74098.8,4.39,-27.13,-27.61,0,*71
1498093496.27,44264,20.25,74088.5,4.39,-26.71,-27.19,0,*7C
1498093497.5,44265,20.31,74090.0,4.43,-26.49,-26.87,0,*7D
1498093498.77,44266,20.31,74092.5,4.43,-26.93,-27.39,0,*7D
1498093500.06,44267,20.31,74086.3,4.43,-27.61,-28.21,0,*76
1498093501.3,44268,20.31,74086.5,4.43,-27.77,-28.43,0,*7A
1498093502.52,44269,20.31,74088.0,4.43,-27.89,-28.53,0,*7B
1498093503.75,44270,20.31,74074.8,4.45,-27.93,-28.43,0,*7F
1498093504.94,44271,20.31,74064.8,4.45,-28.37,-29.07,0,*7E
1498093506.16,44272,20.31,74068.0,4.45,-28.59,-29.23,0,*73
1498093507.36,44273,20.31,74078.0,4.45,-28.53,-29.23,0,*78
1498093508.57,44274,20.31,74094.0,4.43,-28.69,-29.23,0,*70
1498093509.82,44275,20.31,74098.0,4.43,-28.75,-29.45,0,*7C
1498093511.05,44276,20.31,74096.5,4.45,-28.91,-29.61,0,*75
1498093512.25,44277,20.31,74096.5,4.41,-28.85,-29.45,0,*73
1498093513.5,44278,20.31,74096.0,4.43,-28.69,-29.39,0,*77
1498093514.72,44279,20.31,74102.0,4.41,-28.91,-29.61,0,*7E
1498093515.97,44280,20.31,74102.8,4.45,-28.91,-29.39,0,*71
1498093517.2,44281,20.31,74096.3,4.41,-29.13,-29.67,0,*74
1498093518.42,44282,20.31,74092.5,4.41,-29.13,-29.61,0,*71
1498093519.67,44283,20.31,74090.0,4.41,-29.01,-29.51,0,*70
1498093520.92,44284,20.31,74100.3,4.39,-29.07,-29.73,0,*7E
1498093522.19,44285,20.31,74106.5,4.39,-29.17,-29.73,0,*7E
1498093523.41,44286,20.31,74102.8,4.41,-29.13,-29.79,0,*7C
1498093524.66,44287,20.31,74104.3,4.39,-29.17,-29.83,0,*73
1498093525.89,44288,20.31,74108.8,4.39,-29.07,-29.67,0,*77
1498093527.14,44289,20.31,74110.0,4.35,-28.85,-29.51,0,*74
1498093528.41,44290,20.31,74106.5,4.35,-28.79,-29.39,0,*71
1498093529.66,44291,20.31,74106.0,4.39,-28.69,-29.39,0,*7D
1498093530.9,44292,20.25,74090.8,4.39,-28.69,-29.39,0,*7E
1498093532.18,44293,20.31,74094.8,4.35,-28.79,-29.51,0,*7C
1498093533.43,44294,20.31,74096.5,4.39,-28.91,-29.57,0,*77
1498093534.68,44295,20.31,74094.3,4.39,-29.01,-29.67,0,*7D
1498093535.91,44296,20.31,74092.5,4.35,-29.07,-29.67,0,*74
1498093537.14,44297,20.25,74094.8,4.35,-29.07,-29.67,0,*75
1498093538.41,44298,20.31,74096.0,4.35,-29.17,-29.73,0,*7E
1498093539.68,44299,20.31,74094.0,4.35,-29.17,-29.73,0,*7F
1498093540.93,44300,20.31,74090.5,4.35,-29.07,-29.73,0,*7F
1498093542.12,44301,20.31,74084.0,4.33,-29.23,-29.79,0,*74
1498093543.36,44302,20.31,74090.8,4.33,-29.23,-29.89,0,*78
1498093544.59,44303,20.25,74092.8,4.33,-29.23,-29.89,0,*79
1498093545.84,44304,20.31,74088.3,4.33,-29.13,-29.73,0,*78
1498093547.09,44305,20.31,74082.5,4.31,-29.23,-29.73,0,*78
1498093548.34,44306,20.31,74076.3,4.31,-29.13,-29.61,0,*7B
1498093549.62,44307,20.31,74082.0,4.31,-29.13,-29.73,0,*79
1498093550.84,44308,20.31,74096.5,4.31,-29.23,-29.79,0,*7F
1498093552.07,44309,20.31,74100.0,4.31,-28.97,-29.61,0,*79
1498093553.3,44310,20.31,74102.8,4.33,-28.91,-29.61,0,*75
1498093554.58,44311,20.31,74098.5,4.31,-28.75,-29.39,0,*71
1498093555.78,44312,20.31,74090.8,4.33,-28.85,-29.45,0,*74
1498093557.01,44313,20.31,74094.8,4.29,-28.97,-29.51,0,*78
1498093558.25,44314,20.31,74090.5,4.31,-28.85,-29.57,0,*73
1498093559.48,44315,20.31,74100.8,4.29,-28.91,-29.45,0,*7D
1498093560.71,44316,20.31,74106.0,4.29,-28.79,-29.45,0,*78
1498093561.94,44317,20.31,74100.0,4.29,-28.31,-28.91,0,*7D
1498093563.19,44318,20.31,74104.3,4.29,-28.43,-29.01,0,*7F
1498093564.41,44319,20.31,74100.0,4.33,-27.39,-27.93,0,*72
1498093565.64,44320,20.31,74096.3,4.33,-27.93,-28.43,0,*7A
1498093566.9,44321,20.31,74104.8,4.33,-28.25,-28.91,0,*76
1498093568.17,44322,20.25,74098.3,4.31,-28.59,-29.13,0,*77
1498093569.4,44323,20.31,74100.5,4.33,-28.37,-28.91,0,*77
1498093570.62,44324,20.31,74106.0,4.33,-28.25,-28.97,0,*75
1498093571.85,44325,20.31,74096.3,4.33,-28.43,-28.97,0,*74
1498093573.04,44326,20.31,74092.0,4.33,-28.69,-29.23,0,*71
1498093574.24,44327,20.25,74098.5,4.33,-28.53,-29.23,0,*79
1498093575.47,44328,20.25,74094.5,4.33,-27.93,-28.43,0,*72
1498093576.7,44329,20.31,74094.5,4.33,-28.09,-28.85,0,*75
1498093577.95,44330,20.25,74096.0,4.33,-28.09,-28.59,0,*7C
1498093579.18,44331,20.31,74096.0,4.33,-27.55,-28.25,0,*70
1498093580.41,44332,20.31,74100.8,4.35,-27.03,-27.51,0,*7A
1498093581.67,44333,20.31,74096.3,4.39,-27.19,-27.99,0,*78
1498093582.92,44334,20.31,74098.0,4.39,-27.71,-28.47,0,*7D
1498093584.19,44335,20.25,74092.5,4.39,-28.21,-29.01,0,*75
1498093585.41,44336,20.31,74090.3,4.39,-28.37,-29.07,0,*77
1498093586.65,44337,20.31,74090.5,4.39,-28.47,-29.07,0,*71
1498093587.87,44338,20.31,74090.5,4.41,-28.79,-29.45,0,*7A
1498093589.13,44339,20.31,74090.0,4.43,-28.91,-29.45,0,*7F
1498093590.38,44340,20.31,74086.3,4.39,-29.01,-29.57,0,*77
1498093591.66,44341,20.31,74094.5,4.35,-28.91,-29.51,0,*74
1498093592.88,44342,20.31,74096.8,4.39,-28.31,-28.85,0,*79
1498093594.11,44343,20.31,74098.5,4.39,-28.31,-28.85,0,*78
1498093595.39,44344,20.25,74092.8,4.39,-28.21,-28.91,0,*7B
1498093596.63,44345,20.31,74092.0,4.41,-28.09,-28.75,0,*75
1498093597.87,44346,20.31,74090.0,4.41,-28.09,-28.75,0,*76
1498093599.12,44347,20.31,74090.0,4.41,-28.25,-29.01,0,*7B
1498093600.34,44348,20.31,74094.5,4.41,-28.43,-28.97,0,*7A
1498093601.57,44349,20.31,74092.8,4.41,-28.15,-28.63,0,*73
1498093602.81,44350,20.31,74096.3,4.43,-27.93,-28.43,0,*7A
1498093604.06,44351,20.31,74098.5,4.41,-27.99,-28.59,0,*78
1498093605.29,44352,20.31,74100.3,4.41,-27.93,-28.59,0,*71
1498093606.5,44353,20.31,74102.3,4.41,-27.67,-28.31,0,*75
1498093607.7,44354,20.31,74104.8,4.41,-28.15,-28.85,0,*77
1498093608.93,44355,20.31,74106.3,4.43,-28.43,-29.07,0,*7C
1498093610.2,44356,20.31,74106.0,4.43,-28.43,-29.13,0,*7A
1498093611.47,44357,20.25,74106.8,4.43,-28.05,-28.75,0,*78
1498093612.71,44358,20.31,74108.8,4.43,-27.71,-28.43,0,*7E
1498093613.93,44359,20.25,74106.8,4.43,-27.93,-28.69,0,*7B
1498093615.18,44360,20.25,74092.3,4.43,-28.05,-28.69,0,*71
1498093616.41,44361,20.25,74102.5,4.43,-27.89,-28.53,0,*72
1498093617.63,44362,20.31,74102.5,4.45,-28.05,-28.69,0,*75
1498093618.85,44363,20.31,74084.8,4.45,-28.59,-29.23,0,*72
1498093620.1,44364,20.31,74094.3,4.45,-28.91,-29.39,0,*7A
1498093621.35,44365,20.31,74102.5,4.45,-28.75,-29.39,0,*71
1498093622.57,44366,20.31,74100.8,4.45,-28.75,-29.45,0,*79
1498093623.8,44367,20.31,74106.5,4.45,-28.75,-29.45,0,*78
1498093625.05,44368,20.31,74100.8,4.43,-28.79,-29.45,0,*7D
1498093626.31,44369,20.25,74102.5,4.43,-28.75,-29.39,0,*7B
1498093627.53,44370,20.31,74106.8,4.43,-28.69,-29.23,0,*75
1498093628.79,44371,20.25,74102.8,4.43,-28.59,-29.29,0,*7D
1498093630.01,44372,20.31,74102.3,4.43,-28.53,-29.23,0,*7E
1498093631.26,44373,20.31,74106.5,4.41,-28.43,-29.01,0,*7C
1498093632.53,44374,20.31,74106.0,4.43,-28.09,-28.79,0,*79
1498093633.8,44375,20.25,74100.5,4.43,-28.05,-28.59,0,*76
1498093635.05,44376,20.25,74100.8,4.43,-27.93,-28.59,0,*75
1498093636.27,44377,20.31,74104.3,4.43,-27.89,-28.53,0,*75
1498093637.53,44378,20.31,74110.8,4.47,-27.55,-28.21,0,*7A
1498093638.75,44379,20.31,74108.8,4.45,-27.55,-28.21,0,*79
1498093639.98,44380,20.25,74106.5,4.49,-27.55,-28.21,0,*73
1498093641.19,44381,20.31,74106.8,4.49,-27.51,-28.15,0,*71
1498093642.44,44382,20.31,74100.8,4.49,-27.99,-28.63,0,*77
1498093643.67,44383,20.31,74100.0,4.49,-27.99,-28.69,0,*7C
1498093644.87,44384,20.31,74104.3,4.49,-28.37,-29.07,0,*79
1498093646.08,44385,20.31,74096.5,4.49,-28.47,-29.07,0,*7F
1498093647.36,44386,20.31,74082.8,4.47,-28.63,-29.35,0,*75
1498093648.64,44387,20.31,74078.8,4.47,-28.75,-29.51,0,*71
1498093649.87,44388,20.31,74076.3,4.47,-28.85,-29.57,0,*77
1498093651.07,44389,20.31,74072.0,4.45,-29.07,-29.61,0,*7A
1498093652.32,44390,20.31,74072.5,4.45,-29.01,-29.73,0,*77
1498093653.6,44391,20.31,74076.8,4.47,-28.91,-29.51,0,*7C
1498093654.83,44392,20.31,74082.8,4.47,-28.85,-29.57,0,*7C
1498093656.09,44393,20.31,74094.3,4.47,-28.85,-29.51,0,*7B
1498093657.35,44394,20.31,74102.3,4.47,-29.01,-29.57,0,*77
1498093658.62,44395,20.25,74100.8,4.47,-28.91,-29.73,0,*78
1498093659.84,44396,20.31,74102.3,4.45,-29.13,-29.79,0,*78
1498093661.07,44397,20.31,74098.8,4.45,-29.01,-29.67,0,*75
1498093662.28,44398,20.25,74094.0,4.45,-29.23,-29.83,0,*70
1498093663.48,44399,20.25,74104.0,4.45,-29.23,-29.95,0,*76
1498093664.69,44400,20.25,74098.5,4.43,-29.07,-29.79,0,*73
1498093665.94,44401,20.25,74096.8,4.43,-29.13,-29.95,0,*75
1498093667.14,44402,20.31,74096.3,4.45,-29.07,-29.79,0,*77
1498093668.36,44403,20.25,74088.8,4.41,-29.29,-29.83,0,*7B
1498093669.61,44404,20.31,74092.8,4.41,-29.29,-30.01,0,*7E
1498093670.85,44405,20.25,74094.0,4.41,-29.45,-30.17,0,*72
1498093672.08,44406,20.31,74096.8,4.41,-29.45,-30.17,0,*71
1498093673.31,44407,20.25,74094.5,4.41,-29.45,-30.05,0,*73
1498093674.57,44408,20.31,74090.3,4.41,-29.35,-29.89,0,*77
1498093675.83,44409,20.25,74086.0,4.41,-29.35,-30.05,0,*7A
1498093677.09,44410,20.31,74090.3,4.41,-29.35,-29.89,0,*7E
1498093678.31,44411,20.25,74088.0,4.35,-29.23,-29.95,0,*76
1498093679.59,44412,20.31,74096.0,4.35,-29.39,-30.05,0,*7F
1498093680.84,44413,20.25,74096.8,4.39,-29.39,-29.95,0,*73
1498093682.1,44414,20.25,74098.0,4.39,-29.35,-29.95,0,*78
1498093683.35,44415,20.31,74100.8,4.39,-29.39,-29.95,0,*75
1498093684.6,44416,20.31,74102.3,4.35,-29.17,-29.83,0,*71
1498093685.88,44417,20.25,74098.8,4.35,-29.17,-29.89,0,*7A
1498093687.13,44418,20.31,74100.5,4.35,-29.23,-29.89,0,*72
1498093688.38,44419,20.25,74104.3,4.35,-29.35,-29.95,0,*79
1498093689.62,44420,20.25,74108.3,4.33,-29.23,-29.89,0,*7F
1498093690.82,44421,20.25,74110.5,4.33,-28.97,-29.57,0,*73
1498093692.07,44422,20.31,74104.0,4.35,-28.63,-29.23,0,*7E
1498093693.29,44423,20.25,74102.3,4.35,-28.53,-29.23,0,*7C
1498093694.56,44424,20.25,74106.0,4.35,-28.63,-29.17,0,*7F
1498093695.77,44425,20.31,74110.5,4.33,-28.43,-29.07,0,*7B
1498093697.0,44426,20.31,74110.8,4.33,-28.37,-29.13,0,*7E
1498093698.25,44427,20.31,74100.3,4.31,-28.25,-28.97,0,*73
1498093699.52,44428,20.31,74100.8,4.35,-28.05,-28.79,0,*7A
1498093700.8,44429,20.25,74102.3,4.35,-28.21,-28.91,0,*7B
1498093702.02,44430,20.25,74098.3,4.41,-28.25,-28.97,0,*72
1498093703.27,44431,20.31,74100.0,4.39,-28.31,-29.01,0,*77
1498093704.52,44432,20.31,74102.0,4.39,-28.37,-29.01,0,*72